User: anonymous   Login
Location: Unspecified
(0.0000°N, 0.0000°E)
Time: 23:31:14
(UTC+00:00)
Language:

Tiros 1 - Orbit

View from above orbital plane
View from above orbital plane
View from above satellite
View from above satellite

Ground track
Ground track

The orbit data is extracted from the following two-line orbital elements,

1 00029U 60002B   16145.39944782 -.00000018  00000-0  28404-4 0  9994
2 00029  48.3788 115.6842 0024301 358.8058   1.2792 14.74059537999547
Epoch (UTC): 24 May 2016 09:35:12
Eccentricity: 0.0024301
inclination: 48.3788°
perigee height: 631 km
apogee height: 665 km
right ascension of ascending node: 115.6842°
argument of perigee: 358.8058°
revolutions per day: 14.74059537
mean anomaly at epoch: 1.2792°
orbit number at epoch: 99954

The dashed part of the orbit path shows where the satellite is in the earth's shadow,  

DLR